When you browse on this site, cookies collect data to enhance your experience and personalize the content and advertising you see.
Visit our Privacy Policy to learn more. By continuing to use the site, you agree to this use of cookies and data.
  • In Romania
  • List of Countries
  • For 7 days
  • Water Temperature
  • Satellite Maps
  • Weather Map
  • Weather Widgets
  • user-avatar
    Login

    Hourly Weather Río Gallegos

    Today, 22 March, Friday

    Time Temperature Precipitation Wind Pressure Humidity
    00:00 +12°C° 0.1 mm 4 mps 756 mmHg 77%
    01:00 +12°C° 0 mm 4 mps 756 mmHg 78%
    02:00 +11°C° 0 mm 4 mps 756 mmHg 79%
    03:00 +11°C° 0 mm 4 mps 756 mmHg 80%
    04:00 +11°C° 0 mm 4 mps 756 mmHg 81%
    05:00 +11°C° 0 mm 4 mps 756 mmHg 80%
    06:00 +11°C° 0 mm 3 mps 756 mmHg 79%
    07:00 +11°C° 0 mm 3 mps 756 mmHg 78%
    08:00 +12°C° 0 mm 3 mps 756 mmHg 72%
    09:00 +13°C° 0 mm 3 mps 756 mmHg 66%
    10:00 +14°C° 0 mm 3 mps 756 mmHg 60%
    11:00 +16°C° 0 mm 3 mps 755 mmHg 58%
    12:00 +16°C° 0 mm 3 mps 755 mmHg 56%
    13:00 +17°C° 0 mm 3 mps 755 mmHg 54%
    14:00 +16°C° 0.2 mm 3 mps 755 mmHg 58%
    15:00 +16°C° 0.2 mm 3 mps 754 mmHg 61%
    16:00 +15°C° 0.2 mm 4 mps 754 mmHg 65%
    17:00 +14°C° 0.2 mm 4 mps 754 mmHg 69%
    18:00 +13°C° 0.2 mm 3 mps 754 mmHg 74%
    19:00 +13°C° 0.2 mm 3 mps 754 mmHg 79%
    20:00 +12°C° 0.1 mm 4 mps 755 mmHg 81%
    21:00 +12°C° 0.1 mm 4 mps 755 mmHg 83%
    22:00 +10°C° 0.1 mm 5 mps 755 mmHg 85%
    23:00 +11°C° 0 mm 4 mps 755 mmHg 86%

    Tomorrow, 23 March, Saturday

    Time Temperature Precipitation Wind Pressure Humidity
    00:00 +11°C° 0 mm 3 mps 755 mmHg 88%
    01:00 +10°C° 0 mm 2 mps 756 mmHg 90%
    02:00 +10°C° 0 mm 2 mps 756 mmHg 91%
    03:00 +10°C° 0 mm 2 mps 757 mmHg 91%
    04:00 +10°C° 0 mm 1 mps 757 mmHg 92%
    05:00 +11°C° 0 mm 1 mps 758 mmHg 90%
    06:00 +11°C° 0 mm 1 mps 758 mmHg 88%
    07:00 +11°C° 0 mm 1 mps 759 mmHg 86%
    08:00 +12°C° 0 mm 1 mps 759 mmHg 81%
    09:00 +13°C° 0 mm 1 mps 760 mmHg 76%
    10:00 +14°C° 0 mm 1 mps 760 mmHg 71%
    11:00 +15°C° 0 mm 2 mps 760 mmHg 67%
    12:00 +16°C° 0 mm 3 mps 760 mmHg 63%
    13:00 +17°C° 0 mm 4 mps 760 mmHg 59%
    14:00 +17°C° 0 mm 4 mps 760 mmHg 59%
    15:00 +16°C° 0 mm 5 mps 760 mmHg 59%
    16:00 +16°C° 0 mm 5 mps 760 mmHg 59%
    17:00 +15°C° 0 mm 6 mps 760 mmHg 64%
    18:00 +14°C° 0 mm 6 mps 761 mmHg 69%
    19:00 +13°C° 0 mm 6 mps 761 mmHg 74%
    20:00 +13°C° 0 mm 6 mps 761 mmHg 74%
    21:00 +13°C° 0 mm 6 mps 761 mmHg 74%
    22:00 +13°C° 0 mm 6 mps 762 mmHg 74%
    23:00 +13°C° 0.2 mm 5 mps 762 mmHg 74%

    Day after tomorrow, 24 March, Sunday

    Time Temperature Precipitation Wind Pressure Humidity
    00:00 +13°C° 0.2 mm 4 mps 762 mmHg 75%
    01:00 +14°C° 0.2 mm 2 mps 762 mmHg 76%
    02:00 +13°C° 0.5 mm 2 mps 762 mmHg 76%
    03:00 +13°C° 0.5 mm 1 mps 762 mmHg 77%
    04:00 +13°C° 0.5 mm 1 mps 762 mmHg 78%
    05:00 +13°C° 0.1 mm 1 mps 762 mmHg 78%
    06:00 +12°C° 0.1 mm 2 mps 762 mmHg 77%
    07:00 +12°C° 0.1 mm 2 mps 762 mmHg 77%
    08:00 +12°C° 0 mm 3 mps 762 mmHg 69%
    09:00 +13°C° 0 mm 4 mps 762 mmHg 61%
    10:00 +14°C° 0 mm 4 mps 763 mmHg 53%
    11:00 +15°C° 0 mm 5 mps 762 mmHg 51%
    12:00 +15°C° 0 mm 5 mps 762 mmHg 49%
    13:00 +16°C° 0 mm 6 mps 762 mmHg 47%
    14:00 +15°C° 0.2 mm 6 mps 762 mmHg 50%
    15:00 +14°C° 0.2 mm 6 mps 762 mmHg 53%
    16:00 +13°C° 0.2 mm 6 mps 762 mmHg 56%
    17:00 +12°C° 0 mm 7 mps 762 mmHg 56%
    18:00 +11°C° 0 mm 7 mps 762 mmHg 56%
    19:00 +10°C° 0 mm 7 mps 762 mmHg 56%
    20:00 +10°C° 0 mm 9 mps 763 mmHg 57%
    21:00 +8°C° 0 mm 10 mps 763 mmHg 59%
    22:00 +8°C° 0 mm 11 mps 764 mmHg 61%
    23:00 +8°C° 0 mm 10 mps 764 mmHg 62%

    25 March, Monday

    Time Temperature Precipitation Wind Pressure Humidity
    00:00 +7°C° 0 mm 10 mps 764 mmHg 63%
    01:00 +7°C° 0 mm 9 mps 764 mmHg 64%
    02:00 +6°C° 0 mm 9 mps 765 mmHg 67%
    03:00 +6°C° 0 mm 9 mps 765 mmHg 69%
    04:00 +5°C° 0 mm 9 mps 765 mmHg 72%
    05:00 +6°C° 0 mm 9 mps 766 mmHg 71%
    06:00 +6°C° 0 mm 9 mps 766 mmHg 71%
    07:00 +6°C° 0 mm 10 mps 767 mmHg 71%
    08:00 +7°C° 0 mm 10 mps 767 mmHg 65%
    09:00 +7°C° 0 mm 11 mps 767 mmHg 59%
    10:00 +8°C° 0 mm 12 mps 767 mmHg 54%
    11:00 +9°C° 0 mm 11 mps 767 mmHg 52%
    12:00 +9°C° 0 mm 11 mps 767 mmHg 51%
    13:00 +9°C° 0 mm 11 mps 767 mmHg 49%
    14:00 +11°C° 0 mm 10 mps 767 mmHg 49%
    15:00 +11°C° 0 mm 10 mps 767 mmHg 49%
    16:00 +11°C° 0 mm 9 mps 767 mmHg 49%
    17:00 +10°C° 0 mm 8 mps 768 mmHg 53%
    18:00 +9°C° 0 mm 7 mps 768 mmHg 57%
    19:00 +8°C° 0 mm 6 mps 768 mmHg 61%
    20:00 +8°C° 0 mm 5 mps 768 mmHg 63%
    21:00 +7°C° 0 mm 5 mps 768 mmHg 65%
    22:00 +7°C° 0 mm 4 mps 768 mmHg 67%
    23:00 +7°C° 0 mm 4 mps 768 mmHg 67%

    26 March, Tuesday

    Time Temperature Precipitation Wind Pressure Humidity
    00:00 +7°C° 0 mm 4 mps 767 mmHg 68%
    01:00 +6°C° 0 mm 4 mps 767 mmHg 68%
    02:00 +7°C° 0 mm 4 mps 766 mmHg 67%
    03:00 +7°C° 0 mm 5 mps 766 mmHg 66%
    04:00 +7°C° 0 mm 5 mps 765 mmHg 65%
    05:00 +7°C° 0 mm 5 mps 765 mmHg 65%
    06:00 +8°C° 0 mm 5 mps 765 mmHg 64%
    07:00 +8°C° 0 mm 6 mps 765 mmHg 64%
    08:00 +10°C° 0 mm 7 mps 764 mmHg 57%
    09:00 +11°C° 0 mm 8 mps 764 mmHg 51%
    10:00 +12°C° 0 mm 9 mps 764 mmHg 44%
    11:00 +15°C° 0 mm 9 mps 763 mmHg 44%
    12:00 +16°C° 0 mm 9 mps 763 mmHg 43%
    13:00 +17°C° 0 mm 8 mps 763 mmHg 43%
    14:00 +17°C° 0 mm 8 mps 762 mmHg 43%
    15:00 +18°C° 0 mm 7 mps 762 mmHg 44%
    16:00 +19°C° 0 mm 6 mps 762 mmHg 44%
    17:00 +17°C° 0 mm 4 mps 761 mmHg 49%
    18:00 +16°C° 0 mm 3 mps 761 mmHg 54%
    19:00 +15°C° 0 mm 2 mps 761 mmHg 59%
    20:00 +14°C° 0 mm 2 mps 760 mmHg 59%
    21:00 +14°C° 0 mm 2 mps 760 mmHg 58%
    22:00 +13°C° 0 mm 2 mps 759 mmHg 58%
    23:00 +13°C° 0 mm 2 mps 758 mmHg 57%

    27 March, Wednesday

    Time Temperature Precipitation Wind Pressure Humidity
    00:00 +13°C° 0 mm 2 mps 758 mmHg 57%
    01:00 +13°C° 0 mm 2 mps 757 mmHg 56%
    02:00 +11°C° 0 mm 3 mps 756 mmHg 58%
    03:00 +11°C° 0 mm 3 mps 756 mmHg 59%
    04:00 +10°C° 0 mm 4 mps 755 mmHg 61%
    05:00 +10°C° 0 mm 4 mps 755 mmHg 59%
    06:00 +10°C° 0 mm 4 mps 755 mmHg 57%
    07:00 +10°C° 0 mm 4 mps 755 mmHg 55%
    08:00 +11°C° 0 mm 7 mps 755 mmHg 49%
    09:00 +12°C° 0 mm 9 mps 755 mmHg 44%
    10:00 +14°C° 0 mm 11 mps 755 mmHg 38%
    11:00 +16°C° 0 mm 11 mps 755 mmHg 42%
    12:00 +16°C° 0 mm 11 mps 756 mmHg 46%
    13:00 +17°C° 0 mm 10 mps 756 mmHg 50%
    14:00 +16°C° 0 mm 9 mps 756 mmHg 51%
    15:00 +16°C° 0 mm 9 mps 756 mmHg 53%
    16:00 +15°C° 0 mm 8 mps 756 mmHg 54%
    17:00 +15°C° 0 mm 6 mps 757 mmHg 57%
    18:00 +14°C° 0 mm 5 mps 757 mmHg 60%
    19:00 +13°C° 0 mm 3 mps 757 mmHg 64%
    20:00 +13°C° 0.1 mm 3 mps 757 mmHg 65%
    21:00 +14°C° 0.1 mm 2 mps 757 mmHg 67%
    22:00 +13°C° 0.1 mm 2 mps 757 mmHg 69%
    23:00 +13°C° 0.1 mm 2 mps 757 mmHg 70%
    Show more